EAG5508 SEGU-SGAS

Flight info

Callsign EAG5508
Flight time 4h 6m
Altitude 39000
Route EVRED2A EVRED UL780 TRU UV1 JCL UL550 ASOXI UM548 ISAGU ISAGU
Aircraft A359/H-SDE2E3GHIJ3J4J5LM1ORWXY/LB1D1

Departure

Time 2026-05-05 18:26
Airport José Joaquín de Olmedo International Airport (SEGU)

Arrival

Time 2026-05-05 22:32
Airport Silvio Pettirossi International Airport (SGAS)
Time Latitude Longitude Altitude Speed Heading
2026-05-05 17:47 -2.14719 -79.88231 35 ft 0 kts 300°
2026-05-05 17:49 -2.14719 -79.88230 35 ft 0 kts 300°
2026-05-05 17:49 -2.14719 -79.88231 35 ft 0 kts 300°
2026-05-05 17:52 -2.14719 -79.88230 35 ft 0 kts 300°
2026-05-05 17:52 -2.14719 -79.88231 35 ft 0 kts 300°
2026-05-05 17:53 -2.14719 -79.88230 35 ft 0 kts 300°
2026-05-05 17:54 -2.14719 -79.88231 35 ft 0 kts 300°
2026-05-05 17:55 -2.14719 -79.88230 35 ft 0 kts 300°
2026-05-05 17:57 -2.14719 -79.88231 35 ft 0 kts 300°
2026-05-05 17:59 -2.14719 -79.88230 35 ft 0 kts 300°
2026-05-05 18:00 -2.14719 -79.88231 35 ft 0 kts 300°
2026-05-05 18:01 -2.14719 -79.88230 35 ft 0 kts 300°
2026-05-05 18:01 -2.14719 -79.88231 35 ft 0 kts 300°
2026-05-05 18:06 -2.14719 -79.88230 35 ft 0 kts 300°
2026-05-05 18:07 -2.14719 -79.88231 35 ft 0 kts 300°
2026-05-05 18:08 -2.14719 -79.88230 62 ft 0 kts 300°
2026-05-05 18:09 -2.14719 -79.88231 62 ft 0 kts 300°
2026-05-05 18:10 -2.14719 -79.88230 62 ft 0 kts 300°
2026-05-05 18:11 -2.14719 -79.88231 62 ft 0 kts 300°
2026-05-05 18:12 -2.14719 -79.88230 62 ft 0 kts 300°
2026-05-05 18:12 -2.14719 -79.88231 62 ft 0 kts 300°
2026-05-05 18:14 -2.14722 -79.88224 35 ft 4 kts 302°
2026-05-05 18:14 -2.14739 -79.88203 34 ft 4 kts 321°
2026-05-05 18:14 -2.14760 -79.88192 31 ft 4 kts
2026-05-05 18:14 -2.14773 -79.88196 30 ft 3 kts 101°
2026-05-05 18:15 -2.14773 -79.88199 30 ft 0 kts 107°
2026-05-05 18:23 -2.14778 -79.88181 31 ft 9 kts 109°
2026-05-05 18:23 -2.14814 -79.88110 35 ft 12 kts 119°
2026-05-05 18:23 -2.14816 -79.88034 35 ft 12 kts 57°
2026-05-05 18:24 -2.14750 -79.87984 35 ft 12 kts 31°
2026-05-05 18:24 -2.14678 -79.87934 35 ft 13 kts 48°
2026-05-05 18:24 -2.14643 -79.87850 35 ft 14 kts 74°
2026-05-05 18:24 -2.14650 -79.87762 34 ft 12 kts 136°
2026-05-05 18:25 -2.14710 -79.87772 33 ft 0 kts 210°
2026-05-05 18:25 -2.15080 -79.87984 34 ft 102 kts 210°
2026-05-05 18:25 -2.15918 -79.88467 39 ft 173 kts 210°
2026-05-05 18:26 -2.17034 -79.89126 638 ft 190 kts 210°
2026-05-05 18:26 -2.18131 -79.89776 1475 ft 179 kts 210°
2026-05-05 18:26 -2.19257 -79.90397 1794 ft 193 kts 210°
2026-05-05 18:26 -2.20512 -79.91039 1941 ft 215 kts 200°
2026-05-05 18:27 -2.22089 -79.91227 2039 ft 242 kts 176°
2026-05-05 18:27 -2.23783 -79.90930 2330 ft 258 kts 167°
2026-05-05 18:27 -2.25551 -79.90506 2872 ft 264 kts 167°
2026-05-05 18:27 -2.27357 -79.90075 3424 ft 269 kts 168°
2026-05-05 18:28 -2.31032 -79.89221 4702 ft 273 kts 168°
2026-05-05 18:28 -2.32885 -79.88795 5317 ft 274 kts 167°
2026-05-05 18:28 -2.34748 -79.88369 5950 ft 276 kts 167°
2026-05-05 18:29 -2.36624 -79.87940 6553 ft 277 kts 167°
2026-05-05 18:29 -2.38487 -79.87516 7148 ft 279 kts 167°
2026-05-05 18:29 -2.40384 -79.87083 7775 ft 280 kts 167°
2026-05-05 18:29 -2.42292 -79.86649 8435 ft 282 kts 166°
2026-05-05 18:30 -2.44220 -79.86210 9019 ft 286 kts 166°
2026-05-05 18:30 -2.46176 -79.85765 9622 ft 290 kts 166°
2026-05-05 18:30 -2.48153 -79.85314 10143 ft 295 kts 166°
2026-05-05 18:30 -2.50207 -79.84845 10386 ft 311 kts 166°
2026-05-05 18:31 -2.52366 -79.84353 10601 ft 326 kts 166°
2026-05-05 18:31 -2.54627 -79.83838 10815 ft 340 kts 166°
2026-05-05 18:31 -2.56983 -79.83301 11035 ft 354 kts 166°
2026-05-05 18:31 -2.59388 -79.82753 11235 ft 365 kts 166°
2026-05-05 18:32 -2.61891 -79.82184 11576 ft 372 kts 166°
2026-05-05 18:32 -2.64429 -79.81607 12001 ft 376 kts 166°
2026-05-05 18:32 -2.66993 -79.81023 12389 ft 380 kts 166°
2026-05-05 18:32 -2.69582 -79.80435 12822 ft 383 kts 166°
2026-05-05 18:33 -2.72187 -79.79842 13268 ft 386 kts 166°
2026-05-05 18:33 -2.74816 -79.79244 13723 ft 387 kts 165°
2026-05-05 18:33 -2.77435 -79.78649 14244 ft 386 kts 165°
2026-05-05 18:33 -2.80040 -79.78103 14613 ft 389 kts 167°
2026-05-05 18:34 -2.82729 -79.77666 14938 ft 394 kts 169°
2026-05-05 18:34 -2.85455 -79.77300 15323 ft 397 kts 170°
2026-05-05 18:34 -2.88206 -79.76963 15679 ft 400 kts 172°
2026-05-05 18:34 -2.90982 -79.76633 16028 ft 403 kts 172°
2026-05-05 18:35 -2.93772 -79.76299 16390 ft 406 kts 172°
2026-05-05 18:35 -2.96584 -79.75954 16751 ft 408 kts 171°
2026-05-05 18:35 -2.99413 -79.75600 17100 ft 411 kts 171°
2026-05-05 18:35 -3.02263 -79.75238 17449 ft 414 kts 171°
2026-05-05 18:36 -3.05139 -79.74870 17748 ft 418 kts 171°
2026-05-05 18:36 -3.07992 -79.74503 18161 ft 419 kts 172°
2026-05-05 18:36 -3.10885 -79.74132 18512 ft 421 kts 171°
2026-05-05 18:36 -3.13799 -79.73758 18791 ft 424 kts 172°
2026-05-05 18:37 -3.16732 -79.73382 19106 ft 426 kts 171°
2026-05-05 18:37 -3.19681 -79.73004 19417 ft 428 kts 171°
2026-05-05 18:37 -3.22632 -79.72613 19737 ft 429 kts 171°
2026-05-05 18:37 -3.25603 -79.72224 20009 ft 431 kts 172°
2026-05-05 18:38 -3.28587 -79.71845 20392 ft 433 kts 172°
2026-05-05 18:38 -3.31585 -79.71467 20665 ft 436 kts 172°
2026-05-05 18:38 -3.34558 -79.71091 20976 ft 437 kts 171°
2026-05-05 18:38 -3.37583 -79.70708 21252 ft 440 kts 171°
2026-05-05 18:39 -3.40631 -79.70319 21569 ft 442 kts 171°
2026-05-05 18:39 -3.43694 -79.69928 21855 ft 446 kts 172°
2026-05-05 18:39 -3.46775 -79.69533 22238 ft 446 kts 172°
2026-05-05 18:39 -3.49864 -79.69138 22529 ft 450 kts 171°
2026-05-05 18:40 -3.52977 -79.68739 22857 ft 452 kts 171°
2026-05-05 18:40 -3.56111 -79.68337 23182 ft 454 kts 171°
2026-05-05 18:40 -3.59251 -79.67934 23518 ft 456 kts 172°
2026-05-05 18:40 -3.62365 -79.67534 23794 ft 458 kts 171°
2026-05-05 18:41 -3.65533 -79.67127 24067 ft 460 kts 172°
2026-05-05 18:41 -3.68715 -79.66720 24303 ft 463 kts 171°
2026-05-05 18:41 -3.71918 -79.66308 24519 ft 465 kts 171°
2026-05-05 18:41 -3.75144 -79.65894 24704 ft 470 kts 171°
2026-05-05 18:42 -3.78391 -79.65478 25028 ft 470 kts 171°
2026-05-05 18:42 -3.81631 -79.65063 25372 ft 471 kts 171°
2026-05-05 18:42 -3.84889 -79.64646 25697 ft 472 kts 171°
2026-05-05 18:42 -3.88116 -79.64232 25943 ft 476 kts 171°
2026-05-05 18:43 -3.91414 -79.63809 26240 ft 479 kts 170°
2026-05-05 18:43 -3.94736 -79.63383 26495 ft 484 kts 169°
2026-05-05 18:43 -3.98076 -79.62954 26907 ft 484 kts 170°
2026-05-05 18:43 -4.01419 -79.62526 27245 ft 486 kts 171°
2026-05-05 18:44 -4.04780 -79.62096 27567 ft 488 kts 171°
2026-05-05 18:44 -4.08155 -79.61663 27793 ft 492 kts 171°
2026-05-05 18:44 -4.11565 -79.61225 28098 ft 495 kts 170°
2026-05-05 18:44 -4.14991 -79.60785 28401 ft 497 kts 170°
2026-05-05 18:45 -4.18379 -79.60350 28769 ft 499 kts 170°
2026-05-05 18:45 -4.21826 -79.59907 29094 ft 500 kts 170°
2026-05-05 18:45 -4.25287 -79.59463 29340 ft 503 kts 170°
2026-05-05 18:45 -4.28773 -79.59015 29607 ft 507 kts 170°
2026-05-05 18:46 -4.32278 -79.58565 29869 ft 510 kts 170°
2026-05-05 18:46 -4.35804 -79.58112 30171 ft 511 kts 170°
2026-05-05 18:46 -4.39332 -79.57659 30401 ft 512 kts 170°
2026-05-05 18:46 -4.42874 -79.57206 30669 ft 514 kts 170°
2026-05-05 18:47 -4.46431 -79.56750 30857 ft 517 kts 170°
2026-05-05 18:47 -4.49957 -79.56298 31061 ft 519 kts 170°
2026-05-05 18:47 -4.53540 -79.55843 31338 ft 519 kts 171°
2026-05-05 18:47 -4.57125 -79.55395 31585 ft 520 kts 171°
2026-05-05 18:48 -4.60719 -79.54946 31797 ft 521 kts 171°
2026-05-05 18:48 -4.64310 -79.54500 32143 ft 519 kts 171°
2026-05-05 18:48 -4.67887 -79.54056 32498 ft 517 kts 171°
2026-05-05 18:48 -4.71454 -79.53612 32779 ft 517 kts 171°
2026-05-05 18:49 -4.75021 -79.53168 33069 ft 516 kts 171°
2026-05-05 18:49 -4.78533 -79.52729 33338 ft 515 kts 171°
2026-05-05 18:49 -4.82087 -79.52285 33623 ft 514 kts 171°
2026-05-05 18:49 -4.85630 -79.51843 33908 ft 514 kts 171°
2026-05-05 18:50 -4.89179 -79.51400 34140 ft 514 kts 171°
2026-05-05 18:50 -4.92736 -79.50954 34243 ft 516 kts 171°
2026-05-05 18:50 -4.96294 -79.50509 34472 ft 515 kts 171°
2026-05-05 18:50 -4.99844 -79.50066 34725 ft 514 kts 171°
2026-05-05 18:51 -5.03394 -79.49623 34933 ft 513 kts 171°
2026-05-05 18:51 -5.06942 -79.49181 34999 ft 516 kts 171°
2026-05-05 18:51 -5.10445 -79.48743 35304 ft 512 kts 171°
2026-05-05 18:51 -5.13965 -79.48304 35693 ft 506 kts 172°
2026-05-05 18:52 -5.17438 -79.47870 36099 ft 501 kts 172°
2026-05-05 18:52 -5.20897 -79.47438 36284 ft 501 kts 172°
2026-05-05 18:52 -5.24352 -79.47006 36435 ft 500 kts 172°
2026-05-05 18:52 -5.27811 -79.46573 36534 ft 502 kts 173°
2026-05-05 18:53 -5.31279 -79.46139 36666 ft 502 kts 173°
2026-05-05 18:53 -5.34694 -79.45711 36924 ft 500 kts 173°
2026-05-05 18:53 -5.38135 -79.45280 37088 ft 499 kts 173°
2026-05-05 18:53 -5.41581 -79.44850 37085 ft 498 kts 173°
2026-05-05 18:54 -5.48457 -79.43990 37079 ft 498 kts 173°
2026-05-05 18:54 -5.55332 -79.43129 37059 ft 497 kts 173°
2026-05-05 18:55 -5.62200 -79.42269 37094 ft 498 kts 173°
2026-05-05 18:55 -5.69057 -79.41411 37085 ft 502 kts 173°
2026-05-05 18:56 -5.75980 -79.40543 37082 ft 501 kts 173°
2026-05-05 18:56 -5.82896 -79.39676 37082 ft 501 kts 173°
2026-05-05 18:57 -5.89822 -79.38809 37081 ft 502 kts 173°
2026-05-05 18:57 -5.96697 -79.37948 37081 ft 500 kts 173°
2026-05-05 18:58 -6.03618 -79.37080 37072 ft 502 kts 173°
2026-05-05 18:58 -6.10561 -79.36210 37071 ft 503 kts 173°
2026-05-05 18:59 -6.17500 -79.35339 37057 ft 502 kts 173°
2026-05-05 18:59 -6.24437 -79.34468 37058 ft 503 kts 173°
2026-05-05 19:00 -6.31342 -79.33602 37038 ft 503 kts 173°
2026-05-05 19:00 -6.38279 -79.32731 37038 ft 502 kts 174°
2026-05-05 19:01 -6.45214 -79.31861 37004 ft 503 kts 174°
2026-05-05 19:01 -6.52166 -79.30988 37005 ft 503 kts 174°
2026-05-05 19:02 -6.59095 -79.30117 36983 ft 502 kts 174°
2026-05-05 19:02 -6.65987 -79.29251 36983 ft 503 kts 174°
2026-05-05 19:03 -6.72936 -79.28378 36969 ft 503 kts 174°
2026-05-05 19:03 -6.79876 -79.27505 37009 ft 502 kts 174°
2026-05-05 19:04 -6.86818 -79.26631 37008 ft 504 kts 174°
2026-05-05 19:04 -6.93731 -79.25761 36999 ft 504 kts 173°
2026-05-05 19:05 -7.00668 -79.24888 36999 ft 503 kts 173°
2026-05-05 19:05 -7.07614 -79.24013 36986 ft 503 kts 174°
2026-05-05 19:06 -7.14571 -79.23138 36987 ft 503 kts 173°
2026-05-05 19:06 -7.21519 -79.22262 36966 ft 503 kts 173°
2026-05-05 19:07 -7.28422 -79.21392 36969 ft 503 kts 173°
2026-05-05 19:07 -7.35371 -79.20516 36945 ft 503 kts 173°
2026-05-05 19:08 -7.42317 -79.19640 36949 ft 503 kts 173°
2026-05-05 19:08 -7.49262 -79.18763 36939 ft 503 kts 174°
2026-05-05 19:09 -7.56232 -79.17885 36938 ft 505 kts 174°
2026-05-05 19:09 -7.63167 -79.17009 36941 ft 505 kts 174°
2026-05-05 19:10 -7.70141 -79.16129 36942 ft 505 kts 174°
2026-05-05 19:10 -7.77122 -79.15248 36923 ft 506 kts 174°
2026-05-05 19:11 -7.84099 -79.14367 36920 ft 505 kts 174°
2026-05-05 19:11 -7.91024 -79.13492 36913 ft 505 kts 174°
2026-05-05 19:12 -7.98008 -79.12609 36912 ft 506 kts 174°
2026-05-05 19:12 -8.04984 -79.11698 36906 ft 505 kts 171°
2026-05-05 19:13 -8.11659 -79.09544 36915 ft 506 kts 154°
2026-05-05 19:13 -8.17915 -79.06261 36912 ft 507 kts 151°
2026-05-05 19:14 -8.24026 -79.02829 36915 ft 506 kts 151°
2026-05-05 19:14 -8.30180 -78.99361 36920 ft 507 kts 151°
2026-05-05 19:15 -8.36347 -78.95915 36950 ft 507 kts 151°
2026-05-05 19:15 -8.42516 -78.92482 36958 ft 507 kts 152°
2026-05-05 19:16 -8.48655 -78.89067 36922 ft 507 kts 152°
2026-05-05 19:16 -8.54827 -78.85632 36922 ft 507 kts 151°
2026-05-05 19:17 -8.60997 -78.82196 36988 ft 507 kts 151°
2026-05-05 19:17 -8.67174 -78.78754 36941 ft 507 kts 151°
2026-05-05 19:18 -8.73355 -78.75308 36941 ft 507 kts 151°
2026-05-05 19:18 -8.79492 -78.71886 36914 ft 507 kts 151°
2026-05-05 19:19 -8.85669 -78.68440 36969 ft 507 kts 151°
2026-05-05 19:19 -8.91848 -78.64992 36938 ft 507 kts 151°
2026-05-05 19:20 -8.98024 -78.61545 36933 ft 507 kts 151°
2026-05-05 19:20 -9.04157 -78.58120 36933 ft 507 kts 151°
2026-05-05 19:21 -9.10327 -78.54673 36911 ft 507 kts 151°
2026-05-05 19:21 -9.16499 -78.51238 36910 ft 507 kts 153°
2026-05-05 19:22 -9.22831 -78.48105 36911 ft 507 kts 155°
2026-05-05 19:22 -9.29226 -78.45103 36913 ft 507 kts 155°
2026-05-05 19:23 -9.35564 -78.42081 36921 ft 507 kts 155°
2026-05-05 19:23 -9.41927 -78.38998 36958 ft 507 kts 155°
2026-05-05 19:24 -9.48282 -78.35904 36974 ft 507 kts 155°
2026-05-05 19:24 -9.54642 -78.32805 36994 ft 507 kts 155°
2026-05-05 19:25 -9.60954 -78.29729 36992 ft 507 kts 155°
2026-05-05 19:25 -9.67318 -78.26628 37002 ft 508 kts 155°
2026-05-05 19:26 -9.73689 -78.23525 37034 ft 508 kts 155°
2026-05-05 19:26 -9.80068 -78.20415 37015 ft 508 kts 155°
2026-05-05 19:27 -9.86400 -78.17326 37016 ft 508 kts 155°
2026-05-05 19:27 -9.92775 -78.14216 37001 ft 509 kts 155°
2026-05-05 19:28 -9.99147 -78.11105 37013 ft 508 kts 155°
2026-05-05 19:28 -10.05521 -78.07992 37037 ft 509 kts 155°
2026-05-05 19:29 -10.11918 -78.04867 37015 ft 510 kts 155°
2026-05-05 19:29 -10.18268 -78.01763 37014 ft 510 kts 155°
2026-05-05 19:30 -10.24668 -77.98637 36997 ft 510 kts 155°
2026-05-05 19:30 -10.31062 -77.95515 37021 ft 510 kts 155°
2026-05-05 19:31 -10.37455 -77.92393 37003 ft 510 kts 155°
2026-05-05 19:31 -10.43814 -77.89287 37002 ft 511 kts 155°
2026-05-05 19:32 -10.50217 -77.86157 36977 ft 511 kts 155°
2026-05-05 19:32 -10.56614 -77.83029 36977 ft 511 kts 155°
2026-05-05 19:33 -10.63016 -77.79896 36960 ft 511 kts 155°
2026-05-05 19:33 -10.69421 -77.76761 36961 ft 511 kts 155°
2026-05-05 19:34 -10.75780 -77.73647 36961 ft 511 kts 155°
2026-05-05 19:35 -10.85408 -77.68929 36939 ft 512 kts 155°
2026-05-05 19:35 -10.91825 -77.65782 36950 ft 512 kts 155°
2026-05-05 19:36 -10.98239 -77.62635 36947 ft 512 kts 155°
2026-05-05 19:36 -11.04615 -77.59506 36946 ft 512 kts 155°
2026-05-05 19:37 -11.11032 -77.56355 36938 ft 512 kts 155°
2026-05-05 19:37 -11.17447 -77.53204 36938 ft 512 kts 155°
2026-05-05 19:38 -11.23866 -77.50049 36950 ft 512 kts 155°
2026-05-05 19:38 -11.30249 -77.46913 36950 ft 512 kts 155°
2026-05-05 19:39 -11.36664 -77.43758 36935 ft 512 kts 155°
2026-05-05 19:39 -11.43085 -77.40598 36936 ft 512 kts 155°
2026-05-05 19:40 -11.49505 -77.37438 36927 ft 512 kts 155°
2026-05-05 19:40 -11.55922 -77.34277 36941 ft 512 kts 155°
2026-05-05 19:41 -11.62296 -77.31136 36933 ft 512 kts 155°
2026-05-05 19:41 -11.68717 -77.27971 36933 ft 512 kts 155°
2026-05-05 19:42 -11.75136 -77.24805 36930 ft 512 kts 155°
2026-05-05 19:42 -11.81560 -77.21635 36930 ft 513 kts 155°
2026-05-05 19:43 -11.87984 -77.18463 36937 ft 512 kts 155°
2026-05-05 19:43 -11.94357 -77.15314 36927 ft 512 kts 155°
2026-05-05 19:44 -12.00773 -77.12144 36939 ft 512 kts 155°
2026-05-05 19:44 -12.06941 -77.08492 36938 ft 513 kts 148°
2026-05-05 19:45 -12.12891 -77.04449 36940 ft 514 kts 147°
2026-05-05 19:45 -12.18773 -77.00368 36933 ft 515 kts 146°
2026-05-05 19:46 -12.24708 -76.96249 36929 ft 516 kts 146°
2026-05-05 19:46 -12.30650 -76.92134 36941 ft 516 kts 147°
2026-05-05 19:47 -12.36591 -76.88023 36933 ft 516 kts 147°
2026-05-05 19:47 -12.42492 -76.83939 36932 ft 515 kts 147°
2026-05-05 19:48 -12.48418 -76.79836 36932 ft 515 kts 147°
2026-05-05 19:48 -12.54356 -76.75722 36941 ft 515 kts 147°
2026-05-05 19:49 -12.60287 -76.71609 36933 ft 515 kts 147°
2026-05-05 19:49 -12.66189 -76.67515 36933 ft 515 kts 147°
2026-05-05 19:50 -12.72122 -76.63393 36938 ft 516 kts 147°
2026-05-05 19:50 -12.77403 -76.58449 36940 ft 516 kts 128°
2026-05-05 19:51 -12.81668 -76.52539 36941 ft 517 kts 124°
2026-05-05 19:51 -12.85754 -76.46462 36949 ft 518 kts 124°
2026-05-05 19:52 -12.89798 -76.40408 36951 ft 518 kts 124°
2026-05-05 19:52 -12.93889 -76.34328 36979 ft 518 kts 124°
2026-05-05 19:53 -12.97991 -76.28253 36976 ft 518 kts 124°
2026-05-05 19:53 -13.02095 -76.22179 36952 ft 518 kts 124°
2026-05-05 19:54 -13.06169 -76.16142 36993 ft 518 kts 124°
2026-05-05 19:54 -13.10264 -76.10070 36992 ft 517 kts 124°
2026-05-05 19:55 -13.14354 -76.04000 37007 ft 518 kts 124°
2026-05-05 19:55 -13.17762 -75.98937 37007 ft 519 kts 124°
2026-05-05 19:56 -13.22529 -75.91853 37038 ft 519 kts 124°
2026-05-05 19:56 -13.26629 -75.85756 37020 ft 519 kts 124°
2026-05-05 19:57 -13.30037 -75.80686 37018 ft 519 kts 124°
2026-05-05 19:57 -13.34134 -75.74589 37051 ft 518 kts 124°
2026-05-05 19:58 -13.38210 -75.68520 37033 ft 516 kts 124°
2026-05-05 19:58 -13.42943 -75.61457 37060 ft 516 kts 124°
2026-05-05 19:59 -13.46351 -75.56367 37063 ft 517 kts 124°
2026-05-05 19:59 -13.50411 -75.50304 37045 ft 519 kts 124°
2026-05-05 20:00 -13.54503 -75.44190 37072 ft 519 kts 124°
2026-05-05 20:00 -13.58595 -75.38072 37074 ft 519 kts 124°
2026-05-05 20:01 -13.62672 -75.31969 37087 ft 518 kts 124°
2026-05-05 20:01 -13.66718 -75.25911 37077 ft 517 kts 124°
2026-05-05 20:02 -13.70786 -75.19813 37078 ft 517 kts 124°
2026-05-05 20:02 -13.74855 -75.13715 37079 ft 517 kts 124°
2026-05-05 20:03 -13.78925 -75.07609 37076 ft 518 kts 124°
2026-05-05 20:03 -13.82973 -75.01527 37082 ft 518 kts 123°
2026-05-05 20:04 -13.87041 -74.95412 37079 ft 518 kts 123°
2026-05-05 20:04 -13.91112 -74.89290 37080 ft 519 kts 123°
2026-05-05 20:05 -13.95182 -74.83165 37080 ft 518 kts 123°
2026-05-05 20:05 -13.99248 -74.77041 37086 ft 518 kts 123°
2026-05-05 20:06 -14.03284 -74.70956 37077 ft 518 kts 123°
2026-05-05 20:06 -14.07345 -74.64830 37078 ft 518 kts 123°
2026-05-05 20:07 -14.11411 -74.58691 37080 ft 519 kts 123°
2026-05-05 20:07 -14.15479 -74.52548 37079 ft 520 kts 123°
2026-05-05 20:08 -14.19524 -74.46433 37077 ft 519 kts 123°
2026-05-05 20:08 -14.23588 -74.40284 37082 ft 519 kts 123°
2026-05-05 20:09 -14.27656 -74.34124 37081 ft 519 kts 123°
2026-05-05 20:09 -14.31720 -74.27968 37081 ft 519 kts 123°
2026-05-05 20:10 -14.35781 -74.21810 37081 ft 519 kts 123°
2026-05-05 20:10 -14.39814 -74.15689 37083 ft 519 kts 123°
2026-05-05 20:11 -14.43875 -74.09524 37083 ft 520 kts 123°
2026-05-05 20:11 -14.47936 -74.03353 37082 ft 520 kts 123°
2026-05-05 20:12 -14.51990 -73.97186 37082 ft 519 kts 123°
2026-05-05 20:12 -14.56009 -73.91071 37091 ft 518 kts 123°
2026-05-05 20:13 -14.60049 -73.84916 37090 ft 518 kts 123°
2026-05-05 20:13 -14.64089 -73.78755 37097 ft 518 kts 123°
2026-05-05 20:14 -14.68125 -73.72597 37099 ft 518 kts 123°
2026-05-05 20:14 -14.72161 -73.66435 37097 ft 518 kts 123°
2026-05-05 20:15 -14.76170 -73.60309 37089 ft 519 kts 123°
2026-05-05 20:15 -14.80219 -73.54118 37096 ft 521 kts 123°
2026-05-05 20:16 -14.84274 -73.47916 37078 ft 520 kts 123°
2026-05-05 20:16 -14.88297 -73.41751 37075 ft 521 kts 123°
2026-05-05 20:17 -14.92344 -73.35546 37068 ft 521 kts 123°
2026-05-05 20:17 -14.96395 -73.29332 37072 ft 521 kts 123°
2026-05-05 20:18 -15.00447 -73.23111 37071 ft 521 kts 123°
2026-05-05 20:18 -15.04493 -73.16896 37063 ft 520 kts 123°
2026-05-05 20:19 -15.08524 -73.10699 37066 ft 519 kts 123°
2026-05-05 20:19 -15.12527 -73.04539 37068 ft 519 kts 123°
2026-05-05 20:20 -15.16552 -72.98339 37073 ft 519 kts 123°
2026-05-05 20:20 -15.20579 -72.92131 37078 ft 520 kts 123°
2026-05-05 20:21 -15.24618 -72.85899 37085 ft 522 kts 123°
2026-05-05 20:21 -15.28636 -72.79697 37102 ft 522 kts 123°
2026-05-05 20:22 -15.32678 -72.73454 37102 ft 522 kts 123°
2026-05-05 20:22 -15.36709 -72.67219 37103 ft 520 kts 123°
2026-05-05 20:23 -15.40735 -72.60989 37116 ft 520 kts 123°
2026-05-05 20:23 -15.44733 -72.54796 37111 ft 521 kts 123°
2026-05-05 20:24 -15.48762 -72.48551 37107 ft 521 kts 123°
2026-05-05 20:24 -15.52788 -72.42304 37104 ft 521 kts 123°
2026-05-05 20:25 -15.56814 -72.36054 37108 ft 521 kts 123°
2026-05-05 20:25 -15.60837 -72.29805 37100 ft 521 kts 123°
2026-05-05 20:26 -15.64828 -72.23595 37097 ft 521 kts 123°
2026-05-05 20:26 -15.68850 -72.17334 37098 ft 522 kts 123°
2026-05-05 20:27 -15.72869 -72.11073 37094 ft 521 kts 123°
2026-05-05 20:27 -15.76885 -72.04816 37099 ft 521 kts 123°
2026-05-05 20:28 -15.80865 -71.98602 37094 ft 520 kts 123°
2026-05-05 20:28 -15.84872 -71.92341 37100 ft 521 kts 123°
2026-05-05 20:29 -15.88879 -71.86075 37094 ft 520 kts 123°
2026-05-05 20:29 -15.92879 -71.79818 37092 ft 520 kts 123°
2026-05-05 20:30 -15.96875 -71.73559 37090 ft 520 kts 123°
2026-05-05 20:30 -16.00850 -71.67329 37086 ft 520 kts 123°
2026-05-05 20:31 -16.04847 -71.61060 37087 ft 520 kts 123°
2026-05-05 20:31 -16.08843 -71.54787 37084 ft 520 kts 123°
2026-05-05 20:32 -16.12831 -71.48520 37080 ft 520 kts 123°
2026-05-05 20:32 -16.16791 -71.42292 37080 ft 520 kts 123°
2026-05-05 20:32 -16.18786 -71.39153 37208 ft 520 kts 123°
2026-05-05 20:33 -16.20778 -71.36017 37196 ft 520 kts 123°
2026-05-05 20:33 -16.24764 -71.29739 37162 ft 520 kts 123°
2026-05-05 20:34 -16.28743 -71.23465 37086 ft 519 kts 123°
2026-05-05 20:34 -16.32719 -71.17191 37083 ft 519 kts 123°
2026-05-05 20:35 -16.36666 -71.10956 37087 ft 519 kts 123°
2026-05-05 20:35 -16.40638 -71.04672 37087 ft 519 kts 123°
2026-05-05 20:36 -16.44612 -70.98385 37080 ft 520 kts 123°
2026-05-05 20:36 -16.48584 -70.92096 37079 ft 520 kts 123°
2026-05-05 20:37 -16.52557 -70.85798 37078 ft 521 kts 123°
2026-05-05 20:37 -16.56508 -70.79530 37089 ft 521 kts 123°
2026-05-05 20:38 -16.60481 -70.73221 37086 ft 521 kts 123°
2026-05-05 20:38 -16.64457 -70.66904 37089 ft 521 kts 123°
2026-05-05 20:39 -16.68402 -70.60626 37163 ft 521 kts 123°
2026-05-05 20:39 -16.70388 -70.57464 37345 ft 521 kts 123°
2026-05-05 20:39 -16.72373 -70.54302 37551 ft 520 kts 123°
2026-05-05 20:39 -16.74349 -70.51153 37788 ft 519 kts 123°
2026-05-05 20:40 -16.76323 -70.48006 37970 ft 518 kts 123°
2026-05-05 20:40 -16.78292 -70.44866 38147 ft 517 kts 123°
2026-05-05 20:40 -16.80263 -70.41721 38296 ft 517 kts 123°
2026-05-05 20:40 -16.82227 -70.38587 38476 ft 517 kts 123°
2026-05-05 20:41 -16.84193 -70.35447 38636 ft 516 kts 123°
2026-05-05 20:41 -16.86154 -70.32313 38741 ft 516 kts 123°
2026-05-05 20:41 -16.88091 -70.29218 38861 ft 516 kts 123°
2026-05-05 20:41 -16.90050 -70.26084 38968 ft 516 kts 123°
2026-05-05 20:42 -16.92012 -70.22945 39066 ft 516 kts 123°
2026-05-05 20:42 -16.95944 -70.16650 39102 ft 519 kts 123°
2026-05-05 20:43 -16.99889 -70.10330 39107 ft 519 kts 123°
2026-05-05 20:43 -17.03803 -70.04052 39095 ft 519 kts 123°
2026-05-05 20:44 -17.07733 -69.97743 39091 ft 518 kts 123°
2026-05-05 20:44 -17.11676 -69.91409 39087 ft 521 kts 123°
2026-05-05 20:45 -17.17606 -69.81869 39089 ft 521 kts 123°
2026-05-05 20:45 -17.21548 -69.75519 39070 ft 520 kts 123°
2026-05-05 20:46 -17.25459 -69.69216 39074 ft 520 kts 123°
2026-05-05 20:46 -17.29391 -69.62874 39046 ft 520 kts 123°
2026-05-05 20:47 -17.33279 -69.56489 39045 ft 520 kts 122°
2026-05-05 20:47 -17.37099 -69.50057 39021 ft 520 kts 122°
2026-05-05 20:48 -17.40893 -69.43671 39018 ft 519 kts 122°
2026-05-05 20:48 -17.44716 -69.37257 39004 ft 519 kts 122°
2026-05-05 20:49 -17.48547 -69.30841 39004 ft 519 kts 122°
2026-05-05 20:49 -17.52443 -69.24462 38993 ft 520 kts 123°
2026-05-05 20:50 -17.56343 -69.18152 38991 ft 519 kts 123°
2026-05-05 20:50 -17.60259 -69.11794 38989 ft 519 kts 123°
2026-05-05 20:51 -17.64160 -69.05436 38990 ft 519 kts 123°
2026-05-05 20:51 -17.68057 -68.99071 38999 ft 518 kts 123°
2026-05-05 20:52 -17.71923 -68.92749 38999 ft 518 kts 123°
2026-05-05 20:52 -17.75816 -68.86380 38999 ft 518 kts 123°
2026-05-05 20:53 -17.79702 -68.80015 38998 ft 518 kts 123°
2026-05-05 20:53 -17.83586 -68.73648 38999 ft 517 kts 123°
2026-05-05 20:54 -17.87462 -68.67288 38991 ft 517 kts 123°
2026-05-05 20:54 -17.91314 -68.60961 38999 ft 518 kts 123°
2026-05-05 20:55 -17.95194 -68.54581 38990 ft 519 kts 123°
2026-05-05 20:55 -17.99074 -68.48195 38990 ft 518 kts 123°
2026-05-05 20:56 -18.02950 -68.41809 38991 ft 518 kts 123°
2026-05-05 20:56 -18.06826 -68.35497 38991 ft 517 kts 124°
2026-05-05 20:57 -18.10839 -68.29216 38990 ft 518 kts 124°
2026-05-05 20:57 -18.14861 -68.22941 38984 ft 518 kts 124°
2026-05-05 20:58 -18.18867 -68.16646 38979 ft 518 kts 124°
2026-05-05 20:58 -18.22835 -68.10379 38966 ft 519 kts 124°
2026-05-05 20:59 -18.26830 -68.04061 38966 ft 519 kts 124°
2026-05-05 20:59 -18.30825 -67.97738 38966 ft 519 kts 124°
2026-05-05 21:00 -18.34816 -67.91415 38969 ft 519 kts 124°
2026-05-05 21:00 -18.38781 -67.85130 38968 ft 519 kts 124°
2026-05-05 21:01 -18.42772 -67.78796 38982 ft 519 kts 124°
2026-05-05 21:01 -18.46762 -67.72457 38977 ft 520 kts 124°
2026-05-05 21:02 -18.50758 -67.66103 38993 ft 521 kts 124°
2026-05-05 21:02 -18.54754 -67.59741 38988 ft 521 kts 124°
2026-05-05 21:03 -18.58722 -67.53418 39002 ft 521 kts 124°
2026-05-05 21:03 -18.62713 -67.47056 39004 ft 520 kts 124°
2026-05-05 21:04 -18.66684 -67.40694 39004 ft 519 kts 123°
2026-05-05 21:04 -18.70619 -67.34363 39010 ft 520 kts 124°
2026-05-05 21:05 -18.74588 -67.27975 39018 ft 521 kts 124°
2026-05-05 21:05 -18.78562 -67.21580 39003 ft 521 kts 124°
2026-05-05 21:06 -18.82534 -67.15181 39023 ft 521 kts 123°
2026-05-05 21:06 -18.86502 -67.08784 39012 ft 521 kts 123°
2026-05-05 21:07 -18.90439 -67.02430 39012 ft 521 kts 123°
2026-05-05 21:07 -18.94401 -66.96028 39034 ft 521 kts 123°
2026-05-05 21:08 -18.98362 -66.89622 39025 ft 521 kts 124°
2026-05-05 21:08 -19.02333 -66.83193 39056 ft 523 kts 124°
2026-05-05 21:09 -19.06279 -66.76798 39045 ft 523 kts 123°
2026-05-05 21:09 -19.10248 -66.70358 39078 ft 523 kts 123°
2026-05-05 21:10 -19.14217 -66.63912 39078 ft 523 kts 123°
2026-05-05 21:10 -19.18180 -66.57469 39098 ft 523 kts 123°
2026-05-05 21:11 -19.22138 -66.51028 39104 ft 522 kts 123°
2026-05-05 21:11 -19.26066 -66.44628 39111 ft 522 kts 123°
2026-05-05 21:12 -19.30021 -66.38178 39102 ft 522 kts 123°
2026-05-05 21:12 -19.33974 -66.31725 39107 ft 522 kts 123°
2026-05-05 21:13 -19.37926 -66.25267 39102 ft 522 kts 123°
2026-05-05 21:13 -19.41873 -66.18814 39091 ft 521 kts 124°
2026-05-05 21:14 -19.45807 -66.12428 39094 ft 521 kts 124°
2026-05-05 21:14 -19.49778 -66.05993 39074 ft 522 kts 124°
2026-05-05 21:15 -19.53768 -65.99548 39069 ft 523 kts 124°
2026-05-05 21:15 -19.57758 -65.93096 39046 ft 523 kts 124°
2026-05-05 21:16 -19.61718 -65.86681 39037 ft 523 kts 124°
2026-05-05 21:16 -19.65695 -65.80214 39034 ft 523 kts 123°
2026-05-05 21:17 -19.69583 -65.73679 38994 ft 524 kts 123°
2026-05-05 21:17 -19.73448 -65.67120 38994 ft 524 kts 123°
2026-05-05 21:18 -19.77333 -65.60554 38944 ft 526 kts 123°
2026-05-05 21:18 -19.81196 -65.54038 38948 ft 525 kts 123°
2026-05-05 21:19 -19.85091 -65.47486 38942 ft 524 kts 123°
2026-05-05 21:19 -19.88987 -65.40954 38918 ft 523 kts 123°
2026-05-05 21:20 -19.92880 -65.34420 38926 ft 523 kts 123°
2026-05-05 21:20 -19.96741 -65.27929 38924 ft 523 kts 123°
2026-05-05 21:21 -20.00625 -65.21391 38946 ft 523 kts 123°
2026-05-05 21:21 -20.04505 -65.14852 38945 ft 523 kts 123°
2026-05-05 21:22 -20.08391 -65.08297 38960 ft 523 kts 123°
2026-05-05 21:22 -20.12267 -65.01751 38960 ft 523 kts 123°
2026-05-05 21:23 -20.16121 -64.95238 38972 ft 523 kts 123°
2026-05-05 21:23 -20.20013 -64.88702 38981 ft 523 kts 123°
2026-05-05 21:24 -20.23911 -64.82161 38981 ft 524 kts 123°
2026-05-05 21:24 -20.27811 -64.75607 38990 ft 524 kts 123°
2026-05-05 21:25 -20.31672 -64.69104 38987 ft 523 kts 123°
2026-05-05 21:25 -20.35549 -64.62562 38987 ft 522 kts 123°
2026-05-05 21:26 -20.39435 -64.56032 38985 ft 522 kts 123°
2026-05-05 21:26 -20.43328 -64.49493 38982 ft 523 kts 123°
2026-05-05 21:27 -20.47192 -64.42993 38957 ft 522 kts 123°
2026-05-05 21:27 -20.51081 -64.36440 38958 ft 523 kts 123°
2026-05-05 21:28 -20.54969 -64.29881 38931 ft 523 kts 124°
2026-05-05 21:28 -20.58865 -64.23326 38913 ft 523 kts 124°
2026-05-05 21:29 -20.62733 -64.16812 38912 ft 523 kts 124°
2026-05-05 21:29 -20.66621 -64.10259 38891 ft 523 kts 124°
2026-05-05 21:30 -20.70537 -64.03718 38892 ft 522 kts 124°
2026-05-05 21:30 -20.74457 -63.97185 38875 ft 523 kts 124°
2026-05-05 21:31 -20.78376 -63.90641 38875 ft 523 kts 124°
2026-05-05 21:31 -20.82266 -63.84133 38877 ft 523 kts 124°
2026-05-05 21:32 -20.86177 -63.77579 38865 ft 523 kts 124°
2026-05-05 21:32 -20.90083 -63.71028 38868 ft 523 kts 124°
2026-05-05 21:33 -20.93985 -63.64473 38868 ft 522 kts 124°
2026-05-05 21:33 -20.97866 -63.57949 38857 ft 524 kts 124°
2026-05-05 21:34 -21.01779 -63.51362 38856 ft 524 kts 124°
2026-05-05 21:34 -21.05687 -63.44777 38841 ft 524 kts 124°
2026-05-05 21:35 -21.09592 -63.38186 38855 ft 524 kts 124°
2026-05-05 21:35 -21.13471 -63.31634 38852 ft 524 kts 124°
2026-05-05 21:36 -21.17371 -63.25039 38853 ft 524 kts 124°
2026-05-05 21:36 -21.21280 -63.18421 38844 ft 526 kts 124°
2026-05-05 21:37 -21.25191 -63.11792 38836 ft 526 kts 124°
2026-05-05 21:37 -21.29070 -63.05206 38829 ft 525 kts 124°
2026-05-05 21:38 -21.32990 -62.98597 38827 ft 525 kts 125°
2026-05-05 21:38 -21.36992 -62.92052 38826 ft 525 kts 126°
2026-05-05 21:39 -21.41005 -62.85509 38826 ft 525 kts 126°
2026-05-05 21:39 -21.45014 -62.78940 38825 ft 526 kts 126°
2026-05-05 21:40 -21.48978 -62.72416 38823 ft 525 kts 126°
2026-05-05 21:40 -21.52964 -62.65846 38823 ft 525 kts 126°
2026-05-05 21:41 -21.56946 -62.59274 38823 ft 525 kts 126°
2026-05-05 21:41 -21.60897 -62.52748 38823 ft 525 kts 126°
2026-05-05 21:42 -21.64874 -62.46171 38824 ft 525 kts 126°
2026-05-05 21:42 -21.68855 -62.39584 38826 ft 525 kts 126°
2026-05-05 21:43 -21.72825 -62.32986 38829 ft 526 kts 126°
2026-05-05 21:43 -21.76792 -62.26385 38829 ft 526 kts 126°
2026-05-05 21:44 -21.80735 -62.19822 38830 ft 525 kts 126°
2026-05-05 21:44 -21.84697 -62.13220 38836 ft 525 kts 126°
2026-05-05 21:45 -21.88660 -62.06609 38830 ft 527 kts 126°
2026-05-05 21:45 -21.92633 -61.99974 38833 ft 527 kts 126°
2026-05-05 21:46 -21.96578 -61.93376 38839 ft 527 kts 126°
2026-05-05 21:46 -22.00542 -61.86738 38839 ft 526 kts 126°
2026-05-05 21:47 -22.04499 -61.80103 38840 ft 526 kts 126°
2026-05-05 21:47 -22.08452 -61.73468 38840 ft 526 kts 126°
2026-05-05 21:48 -22.12416 -61.66808 38851 ft 528 kts 126°
2026-05-05 21:48 -22.16355 -61.60179 38848 ft 529 kts 126°
2026-05-05 21:49 -22.20320 -61.53498 38853 ft 529 kts 126°
2026-05-05 21:49 -22.24283 -61.46812 38853 ft 529 kts 126°
2026-05-05 21:50 -22.28241 -61.40128 38862 ft 529 kts 126°
2026-05-05 21:50 -22.32175 -61.33475 38856 ft 529 kts 126°
2026-05-05 21:51 -22.36134 -61.26772 38858 ft 529 kts 126°
2026-05-05 21:51 -22.40084 -61.20073 38862 ft 528 kts 126°
2026-05-05 21:52 -22.46004 -61.10021 38869 ft 528 kts 126°
2026-05-05 21:53 -22.49920 -61.03361 38871 ft 528 kts 126°
2026-05-05 21:53 -22.53855 -60.96658 38873 ft 527 kts 126°
2026-05-05 21:54 -22.57778 -60.89968 38873 ft 527 kts 126°
2026-05-05 21:54 -22.61699 -60.83274 38877 ft 527 kts 126°
2026-05-05 21:55 -22.65592 -60.76620 38878 ft 527 kts 126°
2026-05-05 21:55 -22.69507 -60.69919 38880 ft 526 kts 127°
2026-05-05 21:56 -22.73410 -60.63229 38884 ft 526 kts 127°
2026-05-05 21:56 -22.77323 -60.56516 38884 ft 527 kts 127°
2026-05-05 21:57 -22.81207 -60.49842 38890 ft 527 kts 127°
2026-05-05 21:57 -22.85117 -60.43114 38890 ft 527 kts 127°
2026-05-05 21:58 -22.89019 -60.36391 38891 ft 527 kts 127°
2026-05-05 21:58 -22.92919 -60.29663 38895 ft 527 kts 127°
2026-05-05 21:59 -22.97025 -60.23100 38895 ft 522 kts 136°
2026-05-05 21:59 -23.02091 -60.17548 38895 ft 517 kts 142°
2026-05-05 22:00 -23.07247 -60.12187 38896 ft 516 kts 142°
2026-05-05 22:00 -23.12437 -60.06802 38900 ft 516 kts 142°
2026-05-05 22:01 -23.17631 -60.01411 38909 ft 517 kts 142°
2026-05-05 22:01 -23.22833 -59.96007 38903 ft 518 kts 142°
2026-05-05 22:02 -23.27794 -59.90847 38905 ft 518 kts 142°
2026-05-05 22:02 -23.32999 -59.85427 38905 ft 517 kts 142°
2026-05-05 22:03 -23.38190 -59.80015 38921 ft 517 kts 142°
2026-05-05 22:03 -23.43384 -59.74596 38906 ft 517 kts 142°
2026-05-05 22:04 -23.48542 -59.69207 38899 ft 518 kts 142°
2026-05-05 22:04 -23.53741 -59.63769 38915 ft 518 kts 142°
2026-05-05 22:05 -23.58932 -59.58334 38920 ft 518 kts 142°
2026-05-05 22:05 -23.64125 -59.52889 38912 ft 518 kts 143°
2026-05-05 22:06 -23.69287 -59.47471 38909 ft 518 kts 143°
2026-05-05 22:06 -23.71882 -59.44745 38757 ft 518 kts 143°
2026-05-05 22:06 -23.74472 -59.42021 38521 ft 517 kts 143°
2026-05-05 22:06 -23.77063 -59.39297 38250 ft 517 kts 143°
2026-05-05 22:07 -23.79647 -59.36578 37942 ft 515 kts 143°
2026-05-05 22:07 -23.82210 -59.33876 37437 ft 511 kts 142°
2026-05-05 22:07 -23.84767 -59.31182 36858 ft 509 kts 142°
2026-05-05 22:07 -23.87278 -59.28535 36271 ft 508 kts 142°
2026-05-05 22:08 -23.89822 -59.25853 35660 ft 508 kts 142°
2026-05-05 22:08 -23.92360 -59.23176 35023 ft 508 kts 142°
2026-05-05 22:08 -23.94903 -59.20492 34339 ft 509 kts 142°
2026-05-05 22:08 -23.97454 -59.17798 33584 ft 511 kts 141°
2026-05-05 22:09 -24.00010 -59.15096 32826 ft 511 kts 141°
2026-05-05 22:09 -24.02568 -59.12390 32089 ft 512 kts 141°
2026-05-05 22:09 -24.05124 -59.09685 31486 ft 510 kts 140°
2026-05-05 22:09 -24.07663 -59.06993 30954 ft 506 kts 140°
2026-05-05 22:10 -24.10180 -59.04325 30419 ft 503 kts 140°
2026-05-05 22:10 -24.12656 -59.01699 29892 ft 500 kts 140°
2026-05-05 22:10 -24.15145 -58.99058 29311 ft 496 kts 140°
2026-05-05 22:10 -24.17610 -58.96441 28788 ft 492 kts 140°
2026-05-05 22:11 -24.20058 -58.93843 28239 ft 488 kts 140°
2026-05-05 22:11 -24.22506 -58.91295 27704 ft 484 kts 140°
2026-05-05 22:11 -24.24947 -58.88780 27175 ft 480 kts 140°
2026-05-05 22:11 -24.27366 -58.86284 26681 ft 476 kts 140°
2026-05-05 22:12 -24.29766 -58.83803 26158 ft 473 kts 140°
2026-05-05 22:12 -24.32145 -58.81340 25666 ft 469 kts 140°
2026-05-05 22:12 -24.34478 -58.78922 25167 ft 466 kts 140°
2026-05-05 22:12 -24.36824 -58.76488 24666 ft 463 kts 140°
2026-05-05 22:13 -24.39156 -58.74067 24169 ft 460 kts 140°
2026-05-05 22:13 -24.41474 -58.71659 23670 ft 458 kts 140°
2026-05-05 22:13 -24.43777 -58.69267 23119 ft 455 kts 139°
2026-05-05 22:13 -24.46066 -58.66886 22598 ft 451 kts 139°
2026-05-05 22:14 -24.48329 -58.64531 22102 ft 447 kts 139°
2026-05-05 22:14 -24.50544 -58.62225 21611 ft 443 kts 139°
2026-05-05 22:14 -24.52772 -58.59905 21107 ft 439 kts 139°
2026-05-05 22:14 -24.54981 -58.57603 20623 ft 436 kts 138°
2026-05-05 22:15 -24.57174 -58.55316 20116 ft 433 kts 138°
2026-05-05 22:15 -24.59353 -58.53044 19629 ft 431 kts 138°
2026-05-05 22:15 -24.61521 -58.50781 19126 ft 429 kts 137°
2026-05-05 22:15 -24.63679 -58.48528 18628 ft 427 kts 137°
2026-05-05 22:16 -24.65824 -58.46287 18114 ft 424 kts 137°
2026-05-05 22:16 -24.67955 -58.44059 17577 ft 421 kts 137°
2026-05-05 22:16 -24.70037 -58.41881 17085 ft 417 kts 137°
2026-05-05 22:16 -24.72131 -58.39690 16591 ft 414 kts 137°
2026-05-05 22:17 -24.74214 -58.37509 16092 ft 412 kts 137°
2026-05-05 22:17 -24.76280 -58.35347 15676 ft 409 kts 137°
2026-05-05 22:17 -24.78346 -58.33172 15297 ft 413 kts 137°
2026-05-05 22:17 -24.80419 -58.30985 14921 ft 413 kts 137°
2026-05-05 22:18 -24.82493 -58.28804 14539 ft 411 kts 137°
2026-05-05 22:18 -24.84557 -58.26636 14180 ft 410 kts 137°
2026-05-05 22:18 -24.86615 -58.24475 13806 ft 408 kts 137°
2026-05-05 22:18 -24.88639 -58.22348 13407 ft 407 kts 137°
2026-05-05 22:19 -24.90684 -58.20199 13037 ft 405 kts 137°
2026-05-05 22:19 -24.92696 -58.18083 12814 ft 394 kts 137°
2026-05-05 22:19 -24.94643 -58.16034 12594 ft 381 kts 137°
2026-05-05 22:19 -24.96532 -58.14046 12390 ft 369 kts 136°
2026-05-05 22:20 -24.98345 -58.12137 12159 ft 351 kts 136°
2026-05-05 22:20 -25.00074 -58.10316 11697 ft 339 kts 136°
2026-05-05 22:20 -25.01765 -58.08534 11156 ft 334 kts 135°
2026-05-05 22:20 -25.03427 -58.06782 10909 ft 328 kts 135°
2026-05-05 22:21 -25.05046 -58.05074 10647 ft 326 kts 135°
2026-05-05 22:21 -25.06681 -58.03350 10359 ft 325 kts 134°
2026-05-05 22:21 -25.08309 -58.01631 10053 ft 323 kts 134°
2026-05-05 22:21 -25.09933 -57.99917 9570 ft 324 kts 134°
2026-05-05 22:22 -25.11553 -57.98206 9211 ft 321 kts 134°
2026-05-05 22:22 -25.13157 -57.96510 8918 ft 318 kts 134°
2026-05-05 22:22 -25.14753 -57.94823 8633 ft 317 kts 134°
2026-05-05 22:22 -25.16341 -57.93144 8334 ft 315 kts 133°
2026-05-05 22:23 -25.17387 -57.92038 8143 ft 313 kts 133°
2026-05-05 22:23 -25.18953 -57.90381 7851 ft 311 kts 133°
2026-05-05 22:23 -25.21008 -57.88205 7470 ft 307 kts 133°
2026-05-05 22:23 -25.22546 -57.86577 7191 ft 305 kts 132°
2026-05-05 22:24 -25.24072 -57.84960 6924 ft 303 kts 132°
2026-05-05 22:24 -25.25589 -57.83353 6647 ft 301 kts 132°
2026-05-05 22:24 -25.26585 -57.82297 6461 ft 299 kts 131°
2026-05-05 22:24 -25.28080 -57.80712 6179 ft 297 kts 132°
2026-05-05 22:25 -25.29562 -57.79138 5902 ft 295 kts 131°
2026-05-05 22:25 -25.31037 -57.77573 5633 ft 293 kts 131°
2026-05-05 22:25 -25.32977 -57.75512 5290 ft 291 kts 131°
2026-05-05 22:25 -25.34435 -57.73963 5064 ft 291 kts 132°
2026-05-05 22:26 -25.35421 -57.72915 4890 ft 292 kts 132°
2026-05-05 22:26 -25.36886 -57.71357 4619 ft 292 kts 132°
2026-05-05 22:26 -25.38313 -57.69812 4349 ft 289 kts 129°
2026-05-05 22:26 -25.39375 -57.67991 4086 ft 277 kts 105°
2026-05-05 22:27 -25.39887 -57.65966 3826 ft 273 kts 97°
2026-05-05 22:27 -25.40288 -57.63916 3581 ft 273 kts 96°
2026-05-05 22:27 -25.40683 -57.61881 3400 ft 267 kts 97°
2026-05-05 22:27 -25.41073 -57.59907 3301 ft 257 kts 97°
2026-05-05 22:28 -25.41081 -57.57445 3103 ft 230 kts 64°
2026-05-05 22:28 -25.40539 -57.56466 3031 ft 215 kts 41°
2026-05-05 22:28 -25.39290 -57.55721 2881 ft 200 kts 11°
2026-05-05 22:28 -25.37985 -57.55317 2756 ft 188 kts 15°
2026-05-05 22:29 -25.36766 -57.55021 2677 ft 178 kts 11°
2026-05-05 22:29 -25.35598 -57.54735 2525 ft 167 kts 14°
2026-05-05 22:29 -25.34483 -57.54462 2230 ft 161 kts 12°
2026-05-05 22:29 -25.33398 -57.54204 1885 ft 157 kts 12°
2026-05-05 22:30 -25.32369 -57.53971 1687 ft 145 kts 12°
2026-05-05 22:30 -25.31410 -57.53728 1506 ft 140 kts 15°
2026-05-05 22:30 -25.30429 -57.53467 1282 ft 152 kts 14°
2026-05-05 22:30 -25.29377 -57.53216 1101 ft 152 kts 12°
2026-05-05 22:31 -25.28358 -57.52992 926 ft 150 kts 13°
2026-05-05 22:31 -25.27346 -57.52741 745 ft 146 kts 15°
2026-05-05 22:31 -25.26356 -57.52490 530 ft 149 kts 14°
2026-05-05 22:31 -25.25364 -57.52249 326 ft 142 kts 15°
2026-05-05 22:32 -25.24462 -57.52026 294 ft 117 kts 12°
2026-05-05 22:32 -25.23785 -57.51863 282 ft 82 kts 12°
2026-05-05 22:32 -25.23345 -57.51755 279 ft 47 kts 12°
2026-05-05 22:32 -25.23135 -57.51705 278 ft 17 kts 12°
2026-05-05 22:33 -25.23072 -57.51652 278 ft 11 kts 65°
2026-05-05 22:33 -25.23074 -57.51575 281 ft 9 kts 101°
2026-05-05 22:33 -25.23091 -57.51514 283 ft 8 kts 117°
2026-05-05 22:33 -25.23134 -57.51491 284 ft 7 kts 179°
2026-05-05 22:34 -25.23193 -57.51501 284 ft 10 kts 192°
2026-05-05 22:34 -25.23267 -57.51519 284 ft 13 kts 192°
2026-05-05 22:34 -25.23370 -57.51544 284 ft 17 kts 192°
2026-05-05 22:34 -25.23488 -57.51572 284 ft 18 kts 192°
2026-05-05 22:35 -25.23616 -57.51604 284 ft 20 kts 192°
2026-05-05 22:35 -25.23754 -57.51638 284 ft 21 kts 192°
2026-05-05 22:35 -25.23876 -57.51669 284 ft 7 kts 193°
2026-05-05 22:35 -25.23934 -57.51678 284 ft 9 kts 176°
2026-05-05 22:36 -25.23994 -57.51646 285 ft 11 kts 148°
2026-05-05 22:36 -25.24057 -57.51603 285 ft 8 kts 149°
2026-05-05 22:36 -25.24103 -57.51562 285 ft 9 kts 125°
2026-05-05 22:36 -25.24119 -57.51519 285 ft 4 kts 109°
2026-05-05 22:37 -25.24123 -57.51507 285 ft 1 kts 109°
2026-05-05 22:37 -25.24124 -57.51504 285 ft 0 kts 109°
2026-05-05 22:37 -25.24124 -57.51502 285 ft 0 kts 109°